Regional Weather Roundup
Issued by NWS

Home | Current Version | Previous Version | Graphics & Text | Print | Product List | Glossary On
Versions: 1 2 3 4 5 6 7 8 9 10 11 12 13 14 15 16 17 18 19 20 21 22 23 24 25 26 27 28 29 30 31 32 33 34 35 36 37 38 39 40 41 42 43 44 45 46 47 48 49 50
247
ASUS43 KMPX 260301
RWRMN
WEATHER ROUNDUP FOR MINNESOTA
NATIONAL WEATHER SERVICE TWIN CITIES/CHANHASSEN MN
1000 PM CDT SAT MAR 25 2017


NOTE: "FAIR" INDICATES FEW OR NO CLOUDS BELOW 12,000 FEET WITH NO
SIGNIFICANT WEATHER AND/OR OBSTRUCTIONS TO VISIBILITY. N/A MEANS
CURRENT SKY AND/OR WEATHER CONDITIONS ARE NOT AVAILABLE.

MNZ060>063-068>070-260400-
   Twin Cities Metro

CITY           SKY/WX    TMP DP  RH WIND       PRES   REMARKS
TWIN CITIES    CLOUDY    40  34  79 E9        30.05F
ST PAUL        CLOUDY    40  37  89 E7        30.07S
CRYSTAL        CLOUDY    40  32  73 E7        30.05S
BLAINE         CLOUDY    43  36  75 E8        30.06S
LAKEVILLE      DRIZZLE   36  36 100 NE9       30.03F
EDEN PRAIRIE   CLOUDY    41  35  79 E9        30.04S
SOUTH ST PAUL  CLOUDY    39  37  93 E5        30.05S FOG
LAKE ELMO      CLOUDY    37  36  93 NE8       30.07S
$$
MNZ001>005-007-008-013>017-022>024-027-028-260400-
   Northwest Minnesota

CITY           SKY/WX    TMP DP  RH WIND       PRES   REMARKS
BEMIDJI        PTCLDY    32  28  83 E6        30.05S WCI  26
HALLOCK        CLOUDY    34  34 100 S8        30.00S WCI  27
ROSEAU         PTCLDY    37  30  75 S8        30.02S
WARROAD        MOCLDY    37  30  75 SE12      30.03S
THIEF RVR FALL CLOUDY   N/A N/A N/A S3        30.03F
CROOKSTON      CLOUDY    34  34 100 S3        30.04S
FOSSTON        PTCLDY    34  28  80 SE9       30.04S WCI  26
DETROIT LAKES  CLOUDY    37  30  75 SE6       30.04S
MOORHEAD       CLOUDY    34  30  86 CALM      30.05S
PARK RAPIDS    CLOUDY    35  26  69 SE8       30.04S WCI  29
MAHNOMEN       FAIR      38  29  72 SE8       30.03F
$$
MNZ006-009>011-018-025>026-260400-
   North Central Minnesota

CITY           SKY/WX    TMP DP  RH WIND       PRES   REMARKS
BAUDETTE       CLOUDY    36  27  69 SE12      30.05S
FLAG ISLAND    PTCLDY    36  28  75 S16       30.03S
INTL FALLS     CLOUDY    33  25  72 SE9G20    30.09F WCI  25
WASKISH        CLOUDY    34  28  80 SE8       30.07S WCI  27
BIG FORK       CLOUDY    32  27  80 SE9G16    30.09F WCI  24
LONGVILLE      CLOUDY    30  27  86 SE3       30.08F
GRAND RAPIDS   CLOUDY    31  28  89 SE8       30.12F WCI  23
CRANE LAKE     CLOUDY    30  25  80 SE3       30.15F
ORR            CLOUDY    30  23  74 CALM      30.09F
COOK           CLOUDY    30  27  86 SE8       30.13F WCI  23
WALKER         FAIR      32  27  82 SE7       30.06F WCI  26
$$
MNZ012-019>021-037-260400-
   Northeast Minnesota

CITY           SKY/WX    TMP DP  RH WIND       PRES   REMARKS
DULUTH         FRZ DRZL  31  30  96 E14       30.13S FOG     WCI  21
ELY            CLOUDY    30  27  86 SE13      30.14F WCI  20
HIBBING        CLOUDY    30  27  88 SE12      30.12F WCI  20
EVELETH        CLOUDY    32  28  83 E6        30.14F WCI  27
DULUTH HARBOR  CLOUDY    34  32  93 E20       30.17S WCI  22
TWO HARBORS    CLOUDY    34  28  80 E14       30.14F WCI  24
SILVER BAY     CLOUDY    30  30 100 NE9       30.15F WCI  22
GRAND MARAIS     N/A     32  26  78 E16       30.22F WCI  21
G MARAIS ARPRT CLOUDY    27  21  80 E8        30.17F WCI  18
$$
MNZ029>031-032-039>041-046>048-054>057-064-260400-
   West Central Minnesota

CITY           SKY/WX    TMP DP  RH WIND       PRES   REMARKS
FERGUS FALLS   CLOUDY    32  28  86 SE5       30.07S WCI  27
WHEATON        CLOUDY    37  34  87 SE8       30.06S
MORRIS         CLOUDY    37  34  87 SE7       30.03F
ALEXANDRIA     CLOUDY    39  34  82 SE9       30.04F
ELBOW LAKE     CLOUDY    35  32  88 E8        30.04S WCI  29
WADENA         CLOUDY    34  28  80 E6        30.04F WCI  29
GLENWOOD       CLOUDY    37  36  93 E5        30.05F
APPLETON       CLOUDY    39  36  87 CALM      30.04F
BENSON         CLOUDY    41  32  70 E5        30.06F
ORTONVILLE     CLOUDY    37  34  87 SE7       30.04S
MADISON        CLOUDY    39  39 100 E7        30.03F FOG
WILLMAR        CLOUDY    39  37  93 E7        30.05F
$$
MNZ033>034-036-042>043-049>051-058-059-260400-
   Central Minnesota

CITY           SKY/WX    TMP DP  RH WIND       PRES   REMARKS
ST CLOUD       CLOUDY    41  33  73 E8        30.05F
SAUK CENTRE    CLOUDY    39  34  83 CALM      30.05S
PAYNESVILLE      N/A     39  35  85 E8        30.05F
AITKIN         CLOUDY    34  28  80 E6        30.09S WCI  29
PINE RIVER     CLOUDY    30  27  86 E7        30.10F WCI  23
BRAINERD       CLOUDY    34  28  79 E9        30.08F WCI  27
STAPLES        CLOUDY    36  28  75 E6        30.05F
LONG PRAIRIE   CLOUDY    37  32  81 CALM      30.05S
LITTLE FALLS   CLOUDY    37  30  75 NE6       30.07R
LITCHFIELD     CLOUDY    39  37  93 E3        30.05F
BUFFALO        CLOUDY    40  34  79 NE6       30.06S
MAPLE LAKE     CLOUDY    40  36  86 E6        30.06S
HUTCHINSON     CLOUDY    39  37  92 NE7       30.05S
$$
MNZ037-044-045-052-053-260400-
   East Central Minnesota

CITY           SKY/WX    TMP DP  RH WIND       PRES   REMARKS
PRINCETON      CLOUDY    43  34  70 E6        30.07S
MORA           CLOUDY    36  30  80 NE6       30.10S
CAMBRIDGE      CLOUDY    45  32  61 E7        30.06S
RUSH CITY      CLOUDY    40  31  71 NE7       30.08S
MOOSE LAKE     CLOUDY    32  30  93 NE6G18    30.10F WCI  26
CLOQUET        CLOUDY    30  28  93 E9        30.12F FOG     WCI  22
MCGREGOR       CLOUDY    32  30  93 E8        30.11F WCI  25
$$
MNZ071>073-080-081-089-090-097-098-260400-
   Southwest Minnesota

CITY           SKY/WX    TMP DP  RH WIND       PRES   REMARKS
MONTEVIDEO     CLOUDY    37  36  93 E3        30.06S
GRANITE FALLS  CLOUDY    40  38  92 NE8       30.05F
CANBY          CLOUDY    38  37  96 CALM      30.04F FOG
MARSHALL       CLOUDY    38  36  92 E7        30.03S
REDWOOD FALLS  CLOUDY    40  34  79 E6        30.03F
OLIVIA         CLOUDY    39  36  87 E6        30.03F
PIPESTONE      CLOUDY    37  34  87 E9        29.98S FOG
WINDOM         CLOUDY    37  36  93 NE9       30.01S FOG
WORTHINGTON    CLOUDY    36  36 100 NE13      29.99F FOG
JACKSON        CLOUDY    36  36 100 NE10      30.00S
TRACY          CLOUDY    38  37  94 E8        30.01F
SLAYTON        CLOUDY    36  35  99 E13       30.00F FOG
$$
MNZ065>067-074>077-082>085-091>093-260400-
   South Central Minnesota

CITY           SKY/WX    TMP DP  RH WIND       PRES   REMARKS
MANKATO        LGT RAIN  38  36  92 NE10      30.02F
NEW ULM        CLOUDY    37  37 100 NE7       30.02S
ST JAMES       CLOUDY    37  37 100 CALM      30.02S FOG
FAIRMONT       LGT RAIN  37  36  96 NE9       29.99F
GLENCOE        CLOUDY    40  38  90 E9        30.04R
FARIBAULT      DRIZZLE   37  36  93 NE7       30.02S
OWATONNA       DRIZZLE   37  36  93 E12       30.00F
WASECA         DRIZZLE   36  34  93 NE10      30.01F
ALBERT LEA     DRIZZLE   36  36 100 E12       29.98F
$$
MNZ078>079-086>088-094>096-260400-
   Southeast Minnesota

CITY           SKY/WX    TMP DP  RH WIND       PRES   REMARKS
ROCHESTER      CLOUDY    36  35  96 E14       29.99F FOG
RED WING       DRIZZLE   39  36  87 E9        30.03F
STANTON        DRIZZLE   38  36  91 NE6       30.01F
DODGE CENTER   CLOUDY    37  36  93 E16       29.99F
WINONA         DRIZZLE   36  34  93 E6        30.05S
AUSTIN         CLOUDY    37  34  87 E10       29.97F
PRESTON        CLOUDY    35  34  96 E8        29.99F WCI  28
$$
ABBREVIATIONS USED IN REMARKS
   TC - TEMPERATURES IN CELSIUS
  WCI - WIND CHILL INDEX
   HX - HEAT INDEX
  VSB - VISIBILITY
$$




USA.gov is the U.S. government's official web portal to all federal, state and local government web resources and services.